Darstellungsparameter: Aktuell verwendete Einstellungen:
Skalierung der Graphiken ... ?
xyx+y,   Skalierungsfaktor:      Skalierung: Modus: x, Faktor: 1
Darstellungszeitraum ... ?
Vom - - bis: - -   Zeitraum: 10.11.2018 - 10.11.2018
Min/Max/Avg-Anzeige ... ?
Zeige MMA aktuell
Zeige MMA Monat
Zeige MMA alles
Zeige --A aktuell
Zeige --A Monat
Zeige --A alles
Keine MMA-Anzeige
MMA:
Average (ber die Originaldaten)
MMA-Basis: 10.11.2018 - 10.11.2018
Quicknavigation für Darstellung... ?
Tage:      1T, 2T, 3T, 5T -1T -2T -3T -5T +1T +2T +3T +5T
Wochen: 1W, 2W, 3W -1W -2W -3W +1W +2W +3W
Monate: 1M, 3M, 6M -1M -3M -6M +1M +3M +6M
Jahre:    1J, 3J, 5J, 10J -1J -3J -5J -10J +1J +3J +5J +10J
Nutze für die Darstellung ... ?
Originaldaten oder Mittelwerte auf ...
Stundenbasis Tagesbasis Wochenbasis
Monatsbasis Jahresbasis      Datenbasis: Original-Daten
Darstellen als:
Statistik (Auto) Statistik J:M      Darstellung:
Zur Graphik,    zurück zur Übersicht aller Sensoren.
 
Tabellarische Datenbersicht: ?
 
Sensor: Nr:Datum:Temp:Abs-Feuchte:Windchill:Wind:
Aussen-T/F 1 10-11-2018 00:00:00 10.1 C 8.79 g/m*3 10.1 C 0 km/h
2 10-11-2018 00:05:00 10.1 C 8.79 g/m*3 10.1 C 0 km/h
3 10-11-2018 00:10:00 10.1 C 8.79 g/m*3 10.1 C 0 km/h
4 10-11-2018 00:15:00 10.1 C 8.89 g/m*3 10.1 C 0 km/h
5 10-11-2018 00:20:00 10.1 C 8.89 g/m*3 10.1 C 0 km/h
6 10-11-2018 00:25:00 10.1 C 8.79 g/m*3 10.1 C 0 km/h
7 10-11-2018 00:30:00 10.1 C 8.79 g/m*3 10.1 C 0 km/h
8 10-11-2018 00:35:00 10 C 8.74 g/m*3 10 C 0 km/h
9 10-11-2018 00:40:00 9.9 C 8.68 g/m*3 9.9 C 1.6 km/h
10 10-11-2018 00:45:00 9.9 C 8.68 g/m*3 9.9 C 0 km/h
11 10-11-2018 00:50:00 9.8 C 8.63 g/m*3 9.8 C 1.6 km/h
12 10-11-2018 00:55:00 9.7 C 8.57 g/m*3 9.7 C 0 km/h
13 10-11-2018 01:00:00 9.7 C 8.57 g/m*3 9.7 C 0 km/h
14 10-11-2018 01:05:00 9.6 C 8.52 g/m*3 9.6 C 1.6 km/h
15 10-11-2018 01:10:00 9.5 C 8.47 g/m*3 9.5 C 1.6 km/h
16 10-11-2018 01:15:00 9.5 C 8.56 g/m*3 9.5 C 0 km/h
17 10-11-2018 01:20:00 9.6 C 8.61 g/m*3 9.6 C 0 km/h
18 10-11-2018 01:25:00 9.7 C 8.67 g/m*3 9.7 C 0 km/h
19 10-11-2018 01:30:00 9.8 C 8.72 g/m*3 9.8 C 0 km/h
20 10-11-2018 01:35:00 10 C 8.93 g/m*3 9.37 C 6.4 km/h
21 10-11-2018 01:40:00 10.2 C 8.95 g/m*3 10.2 C 0 km/h
22 10-11-2018 01:45:00 10.3 C 9 g/m*3 10.3 C 3.2 km/h
23 10-11-2018 01:50:00 10.6 C 9.08 g/m*3 9.4 C 9.7 km/h
24 10-11-2018 01:55:00 10.9 C 9.05 g/m*3 10.41 C 6.4 km/h
25 10-11-2018 02:00:00 11.1 C 9.17 g/m*3 11.1 C 3.2 km/h
Sensor: Nr:Datum:Temp:Abs-Feuchte:Windchill:Wind:
Aussen-T/F 26 10-11-2018 02:05:00 11.2 C 9.12 g/m*3 11.2 C 4.8 km/h
27 10-11-2018 02:10:00 11.4 C 9.03 g/m*3 11.4 C 11.3 km/h
28 10-11-2018 02:15:00 11.5 C 9.09 g/m*3 11.5 C 1.6 km/h
29 10-11-2018 02:20:00 11.5 C 8.99 g/m*3 11.5 C 8.1 km/h
30 10-11-2018 02:25:00 11.6 C 9.04 g/m*3 11.6 C 9.7 km/h
31 10-11-2018 02:30:00 11.6 C 8.94 g/m*3 11.6 C 6.4 km/h
32 10-11-2018 02:35:00 11.6 C 8.94 g/m*3 11.6 C 6.4 km/h
33 10-11-2018 02:40:00 11.7 C 8.99 g/m*3 11.7 C 6.4 km/h
34 10-11-2018 02:45:00 11.7 C 8.99 g/m*3 11.7 C 4.8 km/h
35 10-11-2018 02:50:00 11.7 C 8.99 g/m*3 11.7 C 8.1 km/h
36 10-11-2018 02:55:00 11.7 C 8.99 g/m*3 11.7 C 6.4 km/h
37 10-11-2018 03:00:00 11.7 C 8.89 g/m*3 11.7 C 6.4 km/h
38 10-11-2018 03:05:00 11.7 C 8.99 g/m*3 11.7 C 4.8 km/h
39 10-11-2018 03:10:00 11.6 C 8.94 g/m*3 11.6 C 4.8 km/h
40 10-11-2018 03:15:00 11.6 C 8.94 g/m*3 11.6 C 3.2 km/h
41 10-11-2018 03:20:00 11.5 C 8.78 g/m*3 11.5 C 4.8 km/h
42 10-11-2018 03:25:00 11.5 C 8.88 g/m*3 11.5 C 6.4 km/h
43 10-11-2018 03:30:00 11.4 C 8.72 g/m*3 11.4 C 4.8 km/h
44 10-11-2018 03:35:00 11.4 C 8.72 g/m*3 11.4 C 1.6 km/h
45 10-11-2018 03:40:00 11.4 C 8.72 g/m*3 11.4 C 11.3 km/h
46 10-11-2018 03:45:00 11.5 C 8.78 g/m*3 11.5 C 8.1 km/h
47 10-11-2018 03:50:00 11.6 C 8.83 g/m*3 11.6 C 11.3 km/h
48 10-11-2018 03:55:00 11.6 C 8.73 g/m*3 11.6 C 9.7 km/h
49 10-11-2018 04:00:00 11.7 C 8.79 g/m*3 11.7 C 9.7 km/h
50 10-11-2018 04:05:00 11.7 C 8.79 g/m*3 11.7 C 8.1 km/h
Sensor: Nr:Datum:Temp:Abs-Feuchte:Windchill:Wind:
Aussen-T/F 51 10-11-2018 04:10:00 11.7 C 8.79 g/m*3 11.7 C 12.9 km/h
52 10-11-2018 04:15:00 11.7 C 8.79 g/m*3 11.7 C 11.3 km/h
53 10-11-2018 04:20:00 11.7 C 8.79 g/m*3 11.7 C 6.4 km/h
54 10-11-2018 04:25:00 11.6 C 8.73 g/m*3 11.6 C 6.4 km/h
55 10-11-2018 04:30:00 11.6 C 8.73 g/m*3 11.6 C 4.8 km/h
56 10-11-2018 04:35:00 11.6 C 8.63 g/m*3 11.6 C 6.4 km/h
57 10-11-2018 04:40:00 11.6 C 8.73 g/m*3 11.6 C 16.1 km/h
58 10-11-2018 04:45:00 11.6 C 8.63 g/m*3 11.6 C 16.1 km/h
59 10-11-2018 04:50:00 11.6 C 8.63 g/m*3 11.6 C 8.1 km/h
60 10-11-2018 04:55:00 11.5 C 8.57 g/m*3 11.5 C 8.1 km/h
61 10-11-2018 05:00:00 11.5 C 8.57 g/m*3 11.5 C 9.7 km/h
62 10-11-2018 05:05:00 11.4 C 8.52 g/m*3 11.4 C 16.1 km/h
63 10-11-2018 05:10:00 11.4 C 8.52 g/m*3 11.4 C 9.7 km/h
64 10-11-2018 05:15:00 11.4 C 8.52 g/m*3 11.4 C 6.4 km/h
65 10-11-2018 05:20:00 11.3 C 8.47 g/m*3 11.3 C 6.4 km/h
66 10-11-2018 05:25:00 11.3 C 8.57 g/m*3 11.3 C 11.3 km/h
67 10-11-2018 05:30:00 11.3 C 8.57 g/m*3 11.3 C 4.8 km/h
68 10-11-2018 05:35:00 11.2 C 8.51 g/m*3 11.2 C 6.4 km/h
69 10-11-2018 05:40:00 11.2 C 8.51 g/m*3 11.2 C 11.3 km/h
70 10-11-2018 05:45:00 11.2 C 8.51 g/m*3 11.2 C 9.7 km/h
71 10-11-2018 05:50:00 11.2 C 8.51 g/m*3 11.2 C 9.7 km/h
72 10-11-2018 05:55:00 11.1 C 8.46 g/m*3 11.1 C 9.7 km/h
73 10-11-2018 06:00:00 11.1 C 8.56 g/m*3 11.1 C 16.1 km/h
74 10-11-2018 06:05:00 11.1 C 8.56 g/m*3 11.1 C 12.9 km/h
75 10-11-2018 06:10:00 11 C 8.51 g/m*3 9.4 C 12.9 km/h
Sensor: Nr:Datum:Temp:Abs-Feuchte:Windchill:Wind:
Aussen-T/F 76 10-11-2018 06:15:00 11 C 8.51 g/m*3 10.52 C 6.4 km/h
77 10-11-2018 06:20:00 10.9 C 8.45 g/m*3 9.76 C 9.7 km/h
78 10-11-2018 06:25:00 10.8 C 8.5 g/m*3 9.64 C 9.7 km/h
79 10-11-2018 06:30:00 10.8 C 8.5 g/m*3 9.16 C 12.9 km/h
80 10-11-2018 06:35:00 10.8 C 8.5 g/m*3 10.8 C 1.6 km/h
81 10-11-2018 06:40:00 10.8 C 8.5 g/m*3 10.8 C 4.8 km/h
82 10-11-2018 06:45:00 10.8 C 8.5 g/m*3 10.8 C 3.2 km/h
83 10-11-2018 06:50:00 10.8 C 8.5 g/m*3 10.8 C 4.8 km/h
84 10-11-2018 06:55:00 10.8 C 8.5 g/m*3 10.29 C 6.4 km/h
85 10-11-2018 07:00:00 10.8 C 8.5 g/m*3 10.8 C 3.2 km/h
86 10-11-2018 07:05:00 10.8 C 8.5 g/m*3 10.8 C 3.2 km/h
87 10-11-2018 07:10:00 10.9 C 8.55 g/m*3 10.04 C 8.1 km/h
88 10-11-2018 07:15:00 10.9 C 8.55 g/m*3 10.9 C 1.6 km/h
89 10-11-2018 07:20:00 10.8 C 8.5 g/m*3 10.8 C 4.8 km/h
90 10-11-2018 07:25:00 10.9 C 8.55 g/m*3 10.9 C 3.2 km/h
91 10-11-2018 07:30:00 10.9 C 8.55 g/m*3 10.41 C 6.4 km/h
92 10-11-2018 07:35:00 10.9 C 8.55 g/m*3 10.41 C 6.4 km/h
93 10-11-2018 07:40:00 10.9 C 8.45 g/m*3 10.41 C 6.4 km/h
94 10-11-2018 07:45:00 10.9 C 8.55 g/m*3 10.41 C 6.4 km/h
95 10-11-2018 07:50:00 10.9 C 8.45 g/m*3 9.76 C 9.7 km/h
96 10-11-2018 07:55:00 10.9 C 8.45 g/m*3 10.04 C 8.1 km/h
97 10-11-2018 08:00:00 11 C 8.51 g/m*3 11 C 1.6 km/h
98 10-11-2018 08:05:00 11 C 8.51 g/m*3 10.16 C 8.1 km/h
99 10-11-2018 08:10:00 11 C 8.51 g/m*3 10.52 C 6.4 km/h
100 10-11-2018 08:15:00 11.1 C 8.56 g/m*3 11.1 C 1.6 km/h
Sensor: Nr:Datum:Temp:Abs-Feuchte:Windchill:Wind:
Aussen-T/F 101 10-11-2018 08:20:00 11.1 C 8.56 g/m*3 11.1 C 4.8 km/h
102 10-11-2018 08:25:00 11.1 C 8.56 g/m*3 11.1 C 4.8 km/h
103 10-11-2018 08:30:00 11.1 C 8.56 g/m*3 11.1 C 4.8 km/h
104 10-11-2018 08:35:00 11.1 C 8.66 g/m*3 11.1 C 4.8 km/h
105 10-11-2018 08:40:00 11.1 C 8.76 g/m*3 11.1 C 1.6 km/h
106 10-11-2018 08:45:00 11.1 C 8.76 g/m*3 11.1 C 1.6 km/h
107 10-11-2018 08:50:00 11 C 8.81 g/m*3 11 C 1.6 km/h
108 10-11-2018 08:55:00 10.9 C 8.75 g/m*3 10.9 C 1.6 km/h
109 10-11-2018 09:00:00 10.9 C 8.75 g/m*3 10.9 C 3.2 km/h
110 10-11-2018 09:05:00 10.8 C 8.8 g/m*3 10.8 C 4.8 km/h
111 10-11-2018 09:10:00 10.7 C 8.74 g/m*3 10.18 C 6.4 km/h
112 10-11-2018 09:15:00 10.6 C 8.69 g/m*3 10.6 C 3.2 km/h
113 10-11-2018 09:20:00 10.6 C 8.78 g/m*3 10.6 C 4.8 km/h
114 10-11-2018 09:25:00 10.5 C 8.73 g/m*3 10.5 C 4.8 km/h
115 10-11-2018 09:30:00 10.5 C 8.73 g/m*3 10.5 C 3.2 km/h
116 10-11-2018 09:35:00 10.5 C 8.73 g/m*3 10.5 C 4.8 km/h
117 10-11-2018 09:40:00 10.6 C 8.78 g/m*3 10.6 C 1.6 km/h
118 10-11-2018 09:45:00 10.6 C 8.78 g/m*3 10.6 C 1.6 km/h
119 10-11-2018 09:50:00 10.6 C 8.78 g/m*3 10.6 C 4.8 km/h
120 10-11-2018 09:55:00 10.6 C 8.88 g/m*3 10.6 C 3.2 km/h
121 10-11-2018 10:00:00 10.7 C 8.94 g/m*3 10.7 C 1.6 km/h
122 10-11-2018 10:05:00 10.7 C 8.94 g/m*3 10.7 C 1.6 km/h
123 10-11-2018 10:10:00 10.8 C 8.99 g/m*3 10.8 C 3.2 km/h
124 10-11-2018 10:15:00 10.9 C 9.05 g/m*3 10.9 C 3.2 km/h
125 10-11-2018 10:20:00 10.9 C 8.95 g/m*3 10.9 C 3.2 km/h
Sensor: Nr:Datum:Temp:Abs-Feuchte:Windchill:Wind:
Aussen-T/F 126 10-11-2018 10:25:00 11 C 9.11 g/m*3 11 C 1.6 km/h
127 10-11-2018 10:30:00 11.1 C 9.07 g/m*3 11.1 C 3.2 km/h
128 10-11-2018 10:35:00 11.2 C 9.12 g/m*3 11.2 C 0 km/h
129 10-11-2018 10:40:00 11.3 C 9.18 g/m*3 11.3 C 1.6 km/h
130 10-11-2018 10:45:00 11.4 C 9.24 g/m*3 11.4 C 1.6 km/h
131 10-11-2018 10:50:00 11.5 C 9.3 g/m*3 11.5 C 6.4 km/h
132 10-11-2018 10:55:00 11.6 C 9.25 g/m*3 11.6 C 4.8 km/h
133 10-11-2018 11:00:00 11.6 C 9.25 g/m*3 11.6 C 3.2 km/h
134 10-11-2018 11:05:00 11.7 C 9.41 g/m*3 11.7 C 1.6 km/h
135 10-11-2018 11:10:00 11.8 C 9.37 g/m*3 11.8 C 1.6 km/h
136 10-11-2018 11:15:00 11.8 C 9.37 g/m*3 11.8 C 1.6 km/h
137 10-11-2018 11:20:00 11.9 C 9.32 g/m*3 11.9 C 3.2 km/h
138 10-11-2018 11:25:00 11.9 C 9.32 g/m*3 11.9 C 4.8 km/h
139 10-11-2018 11:30:00 12.1 C 9.44 g/m*3 12.1 C 3.2 km/h
140 10-11-2018 11:35:00 12.2 C 9.5 g/m*3 12.2 C 6.4 km/h
141 10-11-2018 11:40:00 12.3 C 9.56 g/m*3 12.3 C 6.4 km/h
142 10-11-2018 11:45:00 12.4 C 9.62 g/m*3 12.4 C 6.4 km/h
143 10-11-2018 11:50:00 12.6 C 9.62 g/m*3 12.6 C 4.8 km/h
144 10-11-2018 11:55:00 12.7 C 9.68 g/m*3 12.7 C 1.6 km/h
145 10-11-2018 12:00:00 12.8 C 9.74 g/m*3 12.8 C 4.8 km/h
146 10-11-2018 12:05:00 13 C 9.87 g/m*3 13 C 1.6 km/h
147 10-11-2018 12:10:00 13.2 C 9.99 g/m*3 13.2 C 8.1 km/h
148 10-11-2018 12:15:00 13.3 C 9.94 g/m*3 13.3 C 1.6 km/h
149 10-11-2018 12:20:00 13.4 C 10 g/m*3 13.4 C 3.2 km/h
150 10-11-2018 12:25:00 13.6 C 10.12 g/m*3 13.6 C 4.8 km/h
Sensor: Nr:Datum:Temp:Abs-Feuchte:Windchill:Wind:
Aussen-T/F 151 10-11-2018 12:30:00 13.7 C 10.18 g/m*3 13.7 C 4.8 km/h
152 10-11-2018 12:35:00 13.8 C 10.25 g/m*3 13.8 C 0 km/h
153 10-11-2018 12:40:00 13.9 C 10.31 g/m*3 13.9 C 4.8 km/h
154 10-11-2018 12:45:00 14.1 C 10.19 g/m*3 14.1 C 3.2 km/h
155 10-11-2018 12:50:00 14.3 C 10.44 g/m*3 14.3 C 4.8 km/h
156 10-11-2018 12:55:00 14.4 C 10.38 g/m*3 14.4 C 4.8 km/h
157 10-11-2018 13:00:00 14.5 C 10.45 g/m*3 14.5 C 3.2 km/h
158 10-11-2018 13:05:00 14.6 C 10.39 g/m*3 14.6 C 4.8 km/h
159 10-11-2018 13:10:00 14.6 C 10.39 g/m*3 14.6 C 3.2 km/h
160 10-11-2018 13:15:00 14.7 C 10.45 g/m*3 14.7 C 4.8 km/h
161 10-11-2018 13:20:00 14.7 C 10.45 g/m*3 14.7 C 4.8 km/h
162 10-11-2018 13:25:00 14.7 C 10.32 g/m*3 14.7 C 4.8 km/h
163 10-11-2018 13:30:00 14.6 C 10.39 g/m*3 14.6 C 6.4 km/h
164 10-11-2018 13:35:00 14.4 C 10.26 g/m*3 14.4 C 6.4 km/h
165 10-11-2018 13:40:00 14.3 C 10.2 g/m*3 14.3 C 4.8 km/h
166 10-11-2018 13:45:00 14.2 C 10.14 g/m*3 14.2 C 4.8 km/h
167 10-11-2018 13:50:00 14.1 C 10.19 g/m*3 14.1 C 6.4 km/h
168 10-11-2018 13:55:00 14 C 10.37 g/m*3 14 C 0 km/h
169 10-11-2018 14:00:00 14 C 10.37 g/m*3 14 C 4.8 km/h
170 10-11-2018 14:05:00 13.9 C 10.31 g/m*3 13.9 C 4.8 km/h
171 10-11-2018 14:10:00 14 C 10.49 g/m*3 14 C 3.2 km/h
172 10-11-2018 14:15:00 14 C 10.37 g/m*3 14 C 1.6 km/h
173 10-11-2018 14:20:00 14.1 C 10.68 g/m*3 14.1 C 1.6 km/h
174 10-11-2018 14:25:00 14.1 C 10.68 g/m*3 14.1 C 3.2 km/h
175 10-11-2018 14:30:00 13.9 C 10.55 g/m*3 13.9 C 3.2 km/h
Sensor: Nr:Datum:Temp:Abs-Feuchte:Windchill:Wind:
Aussen-T/F 176 10-11-2018 14:35:00 13.8 C 10.48 g/m*3 13.8 C 0 km/h
177 10-11-2018 14:40:00 13.7 C 10.54 g/m*3 13.7 C 1.6 km/h
178 10-11-2018 14:45:00 13.7 C 10.54 g/m*3 13.7 C 0 km/h
179 10-11-2018 14:50:00 13.6 C 10.59 g/m*3 13.6 C 1.6 km/h
180 10-11-2018 14:55:00 13.4 C 10.46 g/m*3 13.4 C 1.6 km/h
181 10-11-2018 15:00:00 13.4 C 10.46 g/m*3 13.4 C 1.6 km/h
182 10-11-2018 15:05:00 13.3 C 10.51 g/m*3 13.3 C 1.6 km/h
183 10-11-2018 15:10:00 13.3 C 10.51 g/m*3 13.3 C 1.6 km/h
184 10-11-2018 15:15:00 13.2 C 10.45 g/m*3 13.2 C 1.6 km/h
185 10-11-2018 15:20:00 13.2 C 10.56 g/m*3 13.2 C 3.2 km/h
186 10-11-2018 15:25:00 13.2 C 10.56 g/m*3 13.2 C 1.6 km/h
187 10-11-2018 15:30:00 13.2 C 10.68 g/m*3 13.2 C 0 km/h
188 10-11-2018 15:35:00 13.2 C 10.68 g/m*3 13.2 C 1.6 km/h
189 10-11-2018 15:40:00 13.2 C 10.68 g/m*3 13.2 C 4.8 km/h
190 10-11-2018 15:45:00 13.1 C 10.5 g/m*3 13.1 C 1.6 km/h
191 10-11-2018 15:50:00 13.1 C 10.5 g/m*3 13.1 C 0 km/h
192 10-11-2018 15:55:00 13 C 10.43 g/m*3 13 C 0 km/h
193 10-11-2018 16:00:00 12.9 C 10.48 g/m*3 12.9 C 1.6 km/h
194 10-11-2018 16:05:00 12.9 C 10.48 g/m*3 12.9 C 0 km/h
195 10-11-2018 16:10:00 12.9 C 10.48 g/m*3 12.9 C 0 km/h
196 10-11-2018 16:15:00 12.9 C 10.48 g/m*3 12.9 C 0 km/h
197 10-11-2018 16:20:00 12.9 C 10.48 g/m*3 12.9 C 0 km/h
198 10-11-2018 16:25:00 12.8 C 10.42 g/m*3 12.8 C 0 km/h
199 10-11-2018 16:30:00 12.7 C 10.35 g/m*3 12.7 C 0 km/h
200 10-11-2018 16:35:00 12.7 C 10.46 g/m*3 12.7 C 0 km/h
Sensor: Nr:Datum:Temp:Abs-Feuchte:Windchill:Wind:
Aussen-T/F 201 10-11-2018 16:40:00 12.6 C 10.4 g/m*3 12.6 C 3.2 km/h
202 10-11-2018 16:45:00 12.5 C 10.33 g/m*3 12.5 C 0 km/h
203 10-11-2018 16:50:00 12.4 C 10.27 g/m*3 12.4 C 0 km/h
204 10-11-2018 16:55:00 12.3 C 10.21 g/m*3 12.3 C 1.6 km/h
205 10-11-2018 17:00:00 12.2 C 10.14 g/m*3 12.2 C 0 km/h
206 10-11-2018 17:05:00 12.2 C 10.14 g/m*3 12.2 C 0 km/h
207 10-11-2018 17:10:00 12.2 C 10.14 g/m*3 12.2 C 0 km/h
208 10-11-2018 17:15:00 12.2 C 10.25 g/m*3 12.2 C 1.6 km/h
209 10-11-2018 17:20:00 12.2 C 10.25 g/m*3 12.2 C 0 km/h
210 10-11-2018 17:25:00 12.3 C 10.32 g/m*3 12.3 C 1.6 km/h
211 10-11-2018 17:30:00 12.2 C 10.25 g/m*3 12.2 C 0 km/h
212 10-11-2018 17:35:00 12.2 C 10.25 g/m*3 12.2 C 1.6 km/h
213 10-11-2018 17:40:00 12.1 C 10.19 g/m*3 12.1 C 1.6 km/h
214 10-11-2018 17:45:00 12.1 C 10.19 g/m*3 12.1 C 1.6 km/h
215 10-11-2018 17:50:00 12 C 10.12 g/m*3 12 C 1.6 km/h
216 10-11-2018 17:55:00 11.9 C 10.06 g/m*3 11.9 C 3.2 km/h
217 10-11-2018 18:00:00 11.9 C 10.06 g/m*3 11.9 C 0 km/h
218 10-11-2018 18:05:00 11.9 C 10.06 g/m*3 11.9 C 3.2 km/h
219 10-11-2018 18:10:00 11.9 C 10.06 g/m*3 11.9 C 0 km/h
220 10-11-2018 18:15:00 12 C 10.12 g/m*3 12 C 1.6 km/h
221 10-11-2018 18:20:00 12.1 C 10.19 g/m*3 12.1 C 3.2 km/h
222 10-11-2018 18:25:00 12.1 C 10.19 g/m*3 12.1 C 1.6 km/h
223 10-11-2018 18:30:00 12.1 C 10.19 g/m*3 12.1 C 0 km/h
224 10-11-2018 18:35:00 12.1 C 10.19 g/m*3 12.1 C 0 km/h
225 10-11-2018 18:40:00 12.2 C 10.36 g/m*3 12.2 C 1.6 km/h
Sensor: Nr:Datum:Temp:Abs-Feuchte:Windchill:Wind:
Aussen-T/F 226 10-11-2018 18:45:00 12.2 C 10.36 g/m*3 12.2 C 0 km/h
227 10-11-2018 18:50:00 12.3 C 10.42 g/m*3 12.3 C 0 km/h
228 10-11-2018 18:55:00 12.3 C 10.32 g/m*3 12.3 C 0 km/h
229 10-11-2018 19:00:00 12.3 C 10.32 g/m*3 12.3 C 0 km/h
230 10-11-2018 19:05:00 12.3 C 10.32 g/m*3 12.3 C 0 km/h
231 10-11-2018 19:10:00 12.3 C 10.32 g/m*3 12.3 C 0 km/h
232 10-11-2018 19:15:00 12.3 C 10.32 g/m*3 12.3 C 0 km/h
233 10-11-2018 19:20:00 12.3 C 10.42 g/m*3 12.3 C 0 km/h
234 10-11-2018 19:25:00 12.3 C 10.32 g/m*3 12.3 C 0 km/h
235 10-11-2018 19:30:00 12.3 C 10.32 g/m*3 12.3 C 0 km/h
236 10-11-2018 19:35:00 12.3 C 10.32 g/m*3 12.3 C 1.6 km/h
237 10-11-2018 19:40:00 12.4 C 10.38 g/m*3 12.4 C 0 km/h
238 10-11-2018 19:45:00 12.4 C 10.38 g/m*3 12.4 C 1.6 km/h
239 10-11-2018 19:50:00 12.4 C 10.38 g/m*3 12.4 C 0 km/h
240 10-11-2018 19:55:00 12.4 C 10.38 g/m*3 12.4 C 3.2 km/h
241 10-11-2018 20:00:00 12.5 C 10.44 g/m*3 12.5 C 1.6 km/h
242 10-11-2018 20:05:00 12.6 C 10.51 g/m*3 12.6 C 3.2 km/h
243 10-11-2018 20:10:00 12.6 C 10.51 g/m*3 12.6 C 1.6 km/h
244 10-11-2018 20:15:00 12.7 C 10.58 g/m*3 12.7 C 3.2 km/h
245 10-11-2018 20:20:00 12.7 C 10.58 g/m*3 12.7 C 0 km/h
246 10-11-2018 20:25:00 12.8 C 10.64 g/m*3 12.8 C 4.8 km/h
247 10-11-2018 20:30:00 12.8 C 10.64 g/m*3 12.8 C 1.6 km/h
248 10-11-2018 20:35:00 12.8 C 10.64 g/m*3 12.8 C 0 km/h
249 10-11-2018 20:40:00 12.8 C 10.64 g/m*3 12.8 C 0 km/h
250 10-11-2018 20:45:00 12.7 C 10.58 g/m*3 12.7 C 0 km/h
Sensor: Nr:Datum:Temp:Abs-Feuchte:Windchill:Wind:
Aussen-T/F 251 10-11-2018 20:50:00 12.7 C 10.69 g/m*3 12.7 C 0 km/h
252 10-11-2018 20:55:00 12.7 C 10.69 g/m*3 12.7 C 0 km/h
253 10-11-2018 21:00:00 12.7 C 10.69 g/m*3 12.7 C 0 km/h
254 10-11-2018 21:05:00 12.7 C 10.69 g/m*3 12.7 C 3.2 km/h
255 10-11-2018 21:10:00 12.6 C 10.62 g/m*3 12.6 C 4.8 km/h
256 10-11-2018 21:15:00 12.5 C 10.44 g/m*3 12.5 C 1.6 km/h
257 10-11-2018 21:20:00 12.4 C 10.38 g/m*3 12.4 C 3.2 km/h
258 10-11-2018 21:25:00 12.4 C 10.38 g/m*3 12.4 C 0 km/h
259 10-11-2018 21:30:00 12.3 C 10.42 g/m*3 12.3 C 0 km/h
260 10-11-2018 21:35:00 12.3 C 10.42 g/m*3 12.3 C 0 km/h
261 10-11-2018 21:40:00 12.2 C 10.36 g/m*3 12.2 C 0 km/h
262 10-11-2018 21:45:00 12.2 C 10.36 g/m*3 12.2 C 0 km/h
263 10-11-2018 21:50:00 12.1 C 10.29 g/m*3 12.1 C 0 km/h
264 10-11-2018 21:55:00 12.1 C 10.29 g/m*3 12.1 C 0 km/h
265 10-11-2018 22:00:00 12 C 10.23 g/m*3 12 C 0 km/h
266 10-11-2018 22:05:00 11.9 C 10.17 g/m*3 11.9 C 0 km/h
267 10-11-2018 22:10:00 11.9 C 10.17 g/m*3 11.9 C 0 km/h
268 10-11-2018 22:15:00 11.8 C 10.1 g/m*3 11.8 C 0 km/h
269 10-11-2018 22:20:00 11.8 C 10.1 g/m*3 11.8 C 0 km/h
270 10-11-2018 22:25:00 11.8 C 10.1 g/m*3 11.8 C 0 km/h
271 10-11-2018 22:30:00 11.8 C 10.1 g/m*3 11.8 C 0 km/h
272 10-11-2018 22:35:00 11.8 C 10.1 g/m*3 11.8 C 0 km/h
273 10-11-2018 22:40:00 11.8 C 10.1 g/m*3 11.8 C 0 km/h
274 10-11-2018 22:45:00 11.8 C 10.1 g/m*3 11.8 C 0 km/h
275 10-11-2018 22:50:00 11.8 C 10.1 g/m*3 11.8 C 0 km/h
Sensor: Nr:Datum:Temp:Abs-Feuchte:Windchill:Wind:
Aussen-T/F 276 10-11-2018 22:55:00 11.8 C 10.1 g/m*3 11.8 C 0 km/h
277 10-11-2018 23:00:00 11.7 C 10.04 g/m*3 11.7 C 0 km/h
278 10-11-2018 23:05:00 11.8 C 10.1 g/m*3 11.8 C 0 km/h
279 10-11-2018 23:10:00 11.8 C 10.21 g/m*3 11.8 C 1.6 km/h
280 10-11-2018 23:15:00 11.8 C 10.1 g/m*3 11.8 C 0 km/h
281 10-11-2018 23:20:00 11.9 C 10.27 g/m*3 11.9 C 1.6 km/h
282 10-11-2018 23:25:00 11.9 C 10.27 g/m*3 11.9 C 1.6 km/h
283 10-11-2018 23:30:00 11.9 C 10.27 g/m*3 11.9 C 0 km/h
284 10-11-2018 23:35:00 11.9 C 10.27 g/m*3 11.9 C 0 km/h
285 10-11-2018 23:40:00 11.8 C 10.21 g/m*3 11.8 C 0 km/h
286 10-11-2018 23:45:00 11.8 C 10.21 g/m*3 11.8 C 0 km/h
287 10-11-2018 23:50:00 11.7 C 10.15 g/m*3 11.7 C 0 km/h
288 10-11-2018 23:55:00 11.7 C 10.15 g/m*3 11.7 C 0 km/h

Legende:
   Min
   Max


Maximal/Minimal-Werte vom 10.11.2018 - 10.11.2018

Sensor Min Max Avg
Temp
(Aussen-T/F)
9.5 °C
10-11-2018  01:10:00
14.7 °C
10-11-2018  13:15:00
11.9 °C
Abs-Feuchte
(Aussen-T/F)
8.45 g/m*3
10-11-2018  06:20:00
10.69 g/m*3
10-11-2018  20:50:00
9.53 g/m*3
Windchill
(Aussen-T/F)
9.16 C
10-11-2018  06:30:00
14.7 C
10-11-2018  13:15:00
11.81 C

Die Daten stammen von einer Davis Vantage Pro 2 Wetter-Station und werden unter Linux mit der Software wview2wettercgi und aufbereitet. Alle Angaben erfolgen ohne Gewähr für ihre Vollständigkeit oder Richtigkeit.
Kontakt: Rainer Krienke krienke@uni-koblenz.de . Meine Webseiten an der Uni Koblenz oder privat.
Version: $Revision: 0.78 $